Torna al catalogo

STARLINK-4100

AttivoComunicazioniVLEO
NORAD 53144·PAYLOAD·🇺🇸 United States

Lanciato Jul 17, 2022 da Cape Canaveral Space Force Station

Loading…

Prossimi Passaggi (prossime 24 ore)

TLE

AggiornatoSource: CelesTrak SupGP

Epoca: Sep 14, 2026, 20:58 UTC

1 53144C 22083N   26257.87409722 -.00007156  00000+0 -21713-3 0  2577
2 53144  53.1594  30.3069 0001172  78.0265  79.7364 15.33553648    16

Traccia STARLINK-4100 in tempo reale con AllMySat

Download on the App Store